Time,TemperatureF,DewpointF,PressureIn,WindDirection,WindDirectionDegrees,WindSpeedMPH,WindSpeedGustMPH,Humidity,HourlyPrecipIn,Conditions,Clouds,dailyrainin,SolarRadiationWatts/m^2,SoftwareType,DateUTC
2013-10-26 01:00:00,42.0,26.0,-100.00,SW,225,11.0,-999.0,52,-99.99,,,-99.99,0.000000,,2013-10-26 05:00:00,
2013-10-26 01:43:00,42.0,26.0,-100.00,SW,225,11.0,-999.0,52,-99.99,,,-99.99,0.000000,,2013-10-26 05:43:00,
2013-10-26 01:52:00,42.0,26.0,-100.00,SW,225,11.0,-999.0,52,-99.99,,,-99.99,0.000000,,2013-10-26 05:52:00,
2013-10-26 02:00:00,42.0,26.0,-100.00,SW,225,11.0,-999.0,52,-99.99,,,-99.99,0.000000,,2013-10-26 06:00:00,
2013-10-26 02:42:00,42.0,26.0,-100.00,SW,225,11.0,-999.0,52,-99.99,,,-99.99,0.000000,,2013-10-26 06:42:00,
2013-10-26 02:52:00,42.0,26.0,-100.00,SW,225,11.0,-999.0,52,-99.99,,,-99.99,0.000000,,2013-10-26 06:52:00,
2013-10-26 03:00:00,41.0,26.0,-100.00,SW,225,11.0,-999.0,54,-99.99,,,-99.99,0.000000,,2013-10-26 07:00:00,
2013-10-26 03:42:00,41.0,26.0,-100.00,SW,225,11.0,-999.0,54,-99.99,,,-99.99,0.000000,,2013-10-26 07:42:00,
2013-10-26 03:52:00,41.0,26.0,-100.00,SW,225,11.0,-999.0,54,-99.99,,,-99.99,0.000000,,2013-10-26 07:52:00,
2013-10-26 04:00:00,40.0,25.0,-100.00,SW,225,10.0,-999.0,54,-99.99,,,-99.99,0.000000,,2013-10-26 08:00:00,
2013-10-26 04:42:00,40.0,25.0,-100.00,SW,225,10.0,-999.0,54,-99.99,,,-99.99,0.000000,,2013-10-26 08:42:00,
2013-10-26 04:52:00,40.0,25.0,-100.00,SW,225,10.0,-999.0,54,-99.99,,,-99.99,0.000000,,2013-10-26 08:52:00,
2013-10-26 06:00:00,41.0,24.0,-100.00,SW,225,11.0,-999.0,51,-99.99,,,-99.99,0.000000,,2013-10-26 10:00:00,
2013-10-26 06:42:00,41.0,24.0,-100.00,SW,225,11.0,-999.0,51,-99.99,,,-99.99,0.000000,,2013-10-26 10:42:00,
2013-10-26 06:53:00,41.0,24.0,-100.00,SW,225,11.0,-999.0,51,-99.99,,,-99.99,0.000000,,2013-10-26 10:53:00,
2013-10-26 07:00:00,41.0,24.0,-100.00,SW,225,11.0,-999.0,51,-99.99,,,-99.99,0.000000,,2013-10-26 11:00:00,
2013-10-26 07:42:00,41.0,24.0,-100.00,SW,225,11.0,-999.0,51,-99.99,,,-99.99,0.000000,,2013-10-26 11:42:00,
2013-10-26 07:52:00,41.0,24.0,-100.00,SW,225,11.0,-999.0,51,-99.99,,,-99.99,0.000000,,2013-10-26 11:52:00,
2013-10-26 08:00:00,41.0,25.0,-100.00,SW,225,9.0,-999.0,52,-99.99,,,-99.99,0.000000,,2013-10-26 12:00:00,
2013-10-26 08:42:00,41.0,25.0,-100.00,SW,225,9.0,-999.0,52,-99.99,,,-99.99,0.000000,,2013-10-26 12:42:00,
2013-10-26 08:52:00,41.0,25.0,-100.00,SW,225,9.0,-999.0,52,-99.99,,,-99.99,0.000000,,2013-10-26 12:52:00,
2013-10-26 09:00:00,41.0,26.0,-100.00,SW,225,8.0,-999.0,54,-99.99,,,-99.99,4.640000,,2013-10-26 13:00:00,
2013-10-26 09:42:00,41.0,26.0,-100.00,SW,225,8.0,-999.0,54,-99.99,,,-99.99,4.640000,,2013-10-26 13:42:00,
2013-10-26 09:52:00,41.0,26.0,-100.00,SW,225,8.0,-999.0,54,-99.99,,,-99.99,4.640000,,2013-10-26 13:52:00,
2013-10-26 10:00:00,41.0,27.0,-100.00,SW,225,9.0,-999.0,56,-99.99,,,-99.99,17.400000,,2013-10-26 14:00:00,
2013-10-26 10:42:00,41.0,27.0,-100.00,SW,225,9.0,-999.0,56,-99.99,,,-99.99,17.400000,,2013-10-26 14:42:00,
2013-10-26 10:52:00,41.0,27.0,-100.00,SW,225,9.0,-999.0,56,-99.99,,,-99.99,17.400000,,2013-10-26 14:52:00,
2013-10-26 12:00:00,47.0,30.0,-100.00,WSW,247,9.0,-999.0,51,-99.99,,,-99.99,303.920013,,2013-10-26 16:00:00,
2013-10-26 12:44:00,47.0,30.0,-100.00,WSW,247,9.0,-999.0,51,-99.99,,,-99.99,303.920013,,2013-10-26 16:44:00,
2013-10-26 12:54:00,47.0,30.0,-100.00,WSW,247,9.0,-999.0,51,-99.99,,,-99.99,303.920013,,2013-10-26 16:54:00,
2013-10-26 13:00:00,48.0,32.0,-100.00,West,270,9.0,-999.0,54,-99.99,,,-99.99,180.960007,,2013-10-26 17:00:00,
2013-10-26 13:43:00,48.0,32.0,-100.00,West,270,9.0,-999.0,54,-99.99,,,-99.99,180.960007,,2013-10-26 17:43:00,
2013-10-26 13:52:00,48.0,32.0,-100.00,West,270,9.0,-999.0,54,-99.99,,,-99.99,180.960007,,2013-10-26 17:52:00,
2013-10-26 14:00:00,48.0,34.0,-100.00,West,270,7.0,-999.0,59,-99.99,,,-99.99,90.480003,,2013-10-26 18:00:00,
2013-10-26 14:42:00,48.0,34.0,-100.00,West,270,7.0,-999.0,59,-99.99,,,-99.99,90.480003,,2013-10-26 18:42:00,
2013-10-26 14:52:00,48.0,34.0,-100.00,West,270,7.0,-999.0,59,-99.99,,,-99.99,90.480003,,2013-10-26 18:52:00,
2013-10-26 15:00:00,48.0,35.0,-100.00,WNW,292,7.0,-999.0,61,-99.99,,,-99.99,89.320000,,2013-10-26 19:00:00,
2013-10-26 15:42:00,48.0,35.0,-100.00,WNW,292,7.0,-999.0,61,-99.99,,,-99.99,89.320000,,2013-10-26 19:42:00,
2013-10-26 15:52:00,48.0,35.0,-100.00,WNW,292,7.0,-999.0,61,-99.99,,,-99.99,89.320000,,2013-10-26 19:52:00,
2013-10-26 17:00:00,48.0,34.0,-100.00,NW,315,10.0,-999.0,58,-99.99,,,-99.99,55.680000,,2013-10-26 21:00:00,
2013-10-26 17:43:00,48.0,34.0,-100.00,NW,315,10.0,-999.0,58,-99.99,,,-99.99,55.680000,,2013-10-26 21:43:00,
2013-10-26 17:55:00,48.0,34.0,-100.00,NW,315,10.0,-999.0,58,-99.99,,,-99.99,55.680000,,2013-10-26 21:55:00,
2013-10-26 18:00:00,47.0,34.0,-100.00,NNW,337,7.0,-999.0,59,-99.99,,,-99.99,23.200001,,2013-10-26 22:00:00,
2013-10-26 18:44:00,47.0,34.0,-100.00,NNW,337,7.0,-999.0,59,-99.99,,,-99.99,23.200001,,2013-10-26 22:44:00,
2013-10-26 18:54:00,47.0,34.0,-100.00,NNW,337,7.0,-999.0,59,-99.99,,,-99.99,23.200001,,2013-10-26 22:54:00,
2013-10-26 19:00:00,47.0,32.0,-100.00,NW,315,6.0,-999.0,57,-99.99,,,-99.99,4.640000,,2013-10-26 23:00:00,
2013-10-26 19:42:00,47.0,32.0,-100.00,NW,315,6.0,-999.0,57,-99.99,,,-99.99,4.640000,,2013-10-26 23:42:00,
2013-10-26 19:52:00,47.0,32.0,-100.00,NW,315,6.0,-999.0,57,-99.99,,,-99.99,4.640000,,2013-10-26 23:52:00,
2013-10-26 20:00:00,45.0,31.0,-100.00,NW,315,5.0,-999.0,58,-99.99,,,-99.99,0.000000,,2013-10-27 00:00:00,
2013-10-26 20:42:00,45.0,31.0,-100.00,NW,315,5.0,-999.0,58,-99.99,,,-99.99,0.000000,,2013-10-27 00:42:00,
2013-10-26 20:52:00,45.0,31.0,-100.00,NW,315,5.0,-999.0,58,-99.99,,,-99.99,0.000000,,2013-10-27 00:52:00,
2013-10-26 22:00:00,43.0,30.0,-100.00,West,270,1.0,-999.0,60,-99.99,,,-99.99,0.000000,,2013-10-27 02:00:00,
2013-10-26 22:42:00,43.0,30.0,-100.00,West,270,1.0,-999.0,60,-99.99,,,-99.99,0.000000,,2013-10-27 02:42:00,
2013-10-26 22:52:00,43.0,30.0,-100.00,West,270,1.0,-999.0,60,-99.99,,,-99.99,0.000000,,2013-10-27 02:52:00,
2013-10-26 23:00:00,-999.0,-99.9,-100.00,North,0,1.0,-999.0,-999,-99.99,,,-99.99,,,2013-10-27 03:00:00,
2013-10-26 23:45:00,42.0,32.0,-100.00,North,0,1.0,-999.0,67,-99.99,,,-99.99,0.000000,,2013-10-27 03:45:00,
2013-10-26 23:55:00,42.0,32.0,-100.00,North,0,1.0,-999.0,67,-99.99,,,-99.99,0.000000,,2013-10-27 03:55:00,